This demonstration page uses our WeatherBlox Daily Observations layout. Learn more.

Left ArrowRight Arrow

Hourly Observations for November 3, 2018

Temp ( °F °C ) Dew Point ( °F °C ) Humidity (%) Winds ( mph kmh ) Pressure ( in mb ) Visibility ( mi km ) Precip ( " mm )
12:57 am 00:57 Cloudy with Light Rain 40 4.4 36 2.2 86 86 SE 14 22 29.76 1008 10 16 0.01 0.25
1:57 am 01:57 Mostly Cloudy 40 4.4 37 2.8 89 89 SE 9 15 29.76 1008 10 16 0.00 0.03
2:57 am 02:57 Cloudy 40 4.4 37 2.8 89 89 SE 12 19 29.75 1007 10 16 0.00 0.00
3:57 am 03:57 Cloudy 40 4.4 36 2.2 86 86 ESE 14 22 29.72 1006 10 16 0.00 0.00
4:57 am 04:57 Mostly Cloudy 40 4.4 36 2.2 86 86 ESE 14 22 29.68 1005 10 16 0.00 0.03
5:57 am 05:57 Cloudy 40 4.4 37 2.8 89 89 ESE 8 13 29.71 1006 10 16 0.00 0.00
6:57 am 06:57 Cloudy 39 3.9 37 2.8 93 93 E 7 11 29.73 1007 10 16 0.00 0.00
7:57 am 07:57 Cloudy 40 4.4 38 3.3 93 93 E 7 11 29.74 1007 10 16 0.00 0.00
8:57 am 08:57 Cloudy with Light Rain 40 4.4 38 3.3 93 93 E 7 11 29.77 1008 10 16 0.00 0.03
9:57 am 09:57 Mostly Sunny 41 5 39 3.9 93 93 E 5 7 29.80 1009 10 16 0.00 0.03
10:29 am 10:29 Partly Cloudy 43 6 39 4 87 87 NNW 5 7 29.85 1011 10 16 0.00 0.00
10:57 am 10:57 Cloudy 43 6.1 38 3.3 82 82 NW 7 11 29.83 1010 10 16 0.00 0.00
11:55 am 11:55 Cloudy 45 7 39 4 81 81 N 14 22 29.83 1010 10 16 0.00 0.00
11:57 am 11:57 Cloudy 45 7.2 39 3.9 80 80 N 14 22 29.83 1010 10 16 0.00 0.00
12:57 pm 12:57 Cloudy 45 7.2 38 3.3 77 77 N 17 28 29.82 1010 10 16 0.00 0.00
1:57 pm 13:57 Cloudy 45 7.2 38 3.3 77 77 N 15 24 29.84 1011 10 16 0.00 0.00
2:57 pm 14:57 Cloudy 45 7.2 38 3.3 77 77 N 18 30 29.85 1011 10 16 0.00 0.00
3:57 pm 15:57 Cloudy 45 7.2 39 3.9 80 80 N 15 24 29.88 1012 10 16 0.00 0.00
4:57 pm 16:57 Cloudy 44 6.7 38 3.3 79 79 N 14 22 29.90 1013 10 16 0.00 0.00
5:40 pm 17:40 Cloudy 43 6 39 4 87 87 N 14 22 29.94 1014 9 14 0.00 0.00
6:27 pm 18:27 Cloudy with Light Rain 43 6 41 5 93 93 N 8 13 29.97 1015 3 4 0.00 0.03
6:45 pm 18:45 Cloudy with Light Rain 41 5 39 4 93 93 N 9 15 29.97 1015 2 3 0.01 0.25
6:57 pm 18:57 Cloudy with Light Rain 41 5 41 5 100 100 N 8 13 29.97 1015 4 6 0.01 0.25
7:41 pm 19:41 Cloudy with Light Rain 41 5 39 4 93 93 N 9 15 30.00 1016 4 6 0.00 0.00
7:48 pm 19:48 Cloudy with Light Rain 41 5 39 4 93 93 NNW 8 13 30.00 1016 7 11 0.00 0.03
7:57 pm 19:57 Cloudy 41 5 40 4.4 96 96 NNW 8 13 29.98 1015 10 16 0.00 0.03
8:26 pm 20:26 Cloudy 43 6 39 4 87 87 N 12 19 30.00 1016 10 16 0.00 0.00
8:57 pm 20:57 Cloudy 41 5 39 3.9 93 93 N 14 22 30.00 1016 10 16 0.00 0.00
9:07 pm 21:07 Cloudy 41 5 39 4 93 93 N 14 22 30.00 1016 10 16 0.00 0.00
9:57 pm 21:57 Cloudy 41 5 39 3.9 93 93 N 13 20 30.02 1017 10 16 0.00 0.00
10:57 pm 22:57 Cloudy with Light Rain 41 5 39 3.9 93 93 N 16 26 30.04 1017 9 14 0.00 0.03
11:32 pm 23:32 Cloudy 39 4 37 3 93 93 N 16 26 30.09 1019 10 16 0.00 0.03
11:44 pm 23:44 Cloudy 39 4 37 3 93 93 N 15 24 30.09 1019 10 16 0.00 0.03
11:57 pm 23:57 Cloudy 40 4.4 37 2.8 89 89 N 17 28 30.04 1017 10 16 0.00 0.03

Powered by AerisWeather